Weather in Petuhovo

Russia / Kurgan Oblast     55°03′54″N   67°53′14″E
temp.,
°C
wind,
m/s
gust,
m/s
humid.,
%
clouds,
%
prec.,
mm/h
press.,
hPa
HPBL,
m
13 august, sat
sat1323:00+15w486889 0.0 1015143
02:00+14w386916 0.0 1014136
05:00+14wsw497126 0.0 1013186
08:00+18w610635 0.0 1012486
11:00+23w811495 0.0 10111566
14:00+25w81145100 0.0 10092306
17:00+23w812600 0.7 10091810
20:00+20wnw61361100 0.0 1010409
14 august, sun
sun1423:00+17nw512570 0.0 1011335
02:00+14nw513650 0.0 1013366
05:00+12nw512740 0.0 1014386
08:00+15nnw610625 0.0 1016854
11:00+19nw78435 0.0 10161927
14:00+20nw783815 0.0 10162432
17:00+19n78419 0.0 10161775
20:00+14n336172 0.0 101842
15 august, mon
mon1523:00+12nw33665 0.0 101839
02:00+10nnw367316 0.0 1019113
05:00+9nw367899 0.0 1020119
08:00+13nnw46665 0.0 1020480
11:00+17nnw67475 0.0 10211810
14:00+19nnw68385 0.0 10202186
17:00+19nnw693818 0.0 10202302
20:00+14ne225661 0.0 102029
16 august, tue
tue1623:00+11s116142 0.0 102113
02:00+11ne11635 0.0 102110
05:00+9n22718 0.0 102210
08:00+14n225391 0.0 1022262
11:00+17wnw234212 0.0 10211814
14:00+20nw453742 0.0 10202242
17:00+20nw584048 0.0 10192114
20:00+17wnw485194 0.0 1018239
17 august, wed
wed1723:00+14wnw35665 0.1 1018114
02:00+12nnw5137286 0.0 1018307
05:00+11nnw410678 0.0 1018287
08:00+13nnw59595 0.0 1019598
11:00+14nnw78515 0.0 10201172
14:00+16nnw81038100 0.0 10192501
17:00+15n710435 0.0 10201695
20:00+11nnw4658100 0.0 1020104